Time,TemperatureF,DewpointF,PressureIn,WindDirection,WindDirectionDegrees,WindSpeedMPH,WindSpeedGustMPH,Humidity,HourlyPrecipIn,Conditions,Clouds,dailyrainin,SoftwareType,DateUTC
2013-04-20 00:02:00,83.3,64.9,29.60,NE,45,4.7,6.0,54,0.00,,,0.00,WUHU216HW,2013-04-19 21:02:00,
2013-04-20 00:07:00,83.2,64.7,29.60,North,0,6.0,6.9,54,0.00,,,0.00,WUHU216HW,2013-04-19 21:07:00,
2013-04-20 00:12:00,83.2,64.7,29.60,NNE,23,3.4,6.9,54,0.00,,,0.00,WUHU216HW,2013-04-19 21:12:00,
2013-04-20 00:17:00,83.2,64.7,29.60,NNE,23,4.9,6.9,54,0.00,,,0.00,WUHU216HW,2013-04-19 21:17:00,
2013-04-20 00:22:00,83.0,64.5,29.60,North,0,2.0,6.3,54,0.00,,,0.00,WUHU216HW,2013-04-19 21:22:00,
2013-04-20 00:27:00,83.2,64.7,29.60,NE,45,1.1,6.3,54,0.00,,,0.00,WUHU216HW,2013-04-19 21:27:00,
2013-04-20 00:32:00,83.2,64.7,29.60,North,0,6.5,6.9,54,0.00,,,0.00,WUHU216HW,2013-04-19 21:32:00,
2013-04-20 00:37:00,83.2,65.3,29.60,NNW,338,4.0,6.9,55,0.00,,,0.00,WUHU216HW,2013-04-19 21:37:00,
2013-04-20 00:42:00,83.0,65.1,29.60,NNW,338,3.4,6.5,55,0.00,,,0.00,WUHU216HW,2013-04-19 21:42:00,
2013-04-20 00:47:00,83.0,65.1,29.59,North,0,3.4,5.4,55,0.00,,,0.00,WUHU216HW,2013-04-19 21:47:00,
2013-04-20 00:52:00,82.8,64.9,29.59,North,0,2.9,5.4,55,0.00,,,0.00,WUHU216HW,2013-04-19 21:52:00,
2013-04-20 00:57:00,82.8,64.9,29.59,NNE,23,2.5,4.9,55,0.00,,,0.00,WUHU216HW,2013-04-19 21:57:00,
2013-04-20 01:02:00,82.6,65.3,29.59,North,0,1.3,4.9,56,0.00,,,0.00,WUHU216HW,2013-04-19 22:02:00,
2013-04-20 01:07:00,82.6,65.3,29.59,ENE,68,3.4,5.1,56,0.00,,,0.00,WUHU216HW,2013-04-19 22:07:00,
2013-04-20 01:12:00,82.8,65.4,29.59,North,0,2.0,5.8,56,0.00,,,0.00,WUHU216HW,2013-04-19 22:12:00,
2013-04-20 01:17:00,82.6,64.7,29.58,NNW,338,2.2,5.8,55,0.00,,,0.00,WUHU216HW,2013-04-19 22:17:00,
2013-04-20 01:22:00,82.6,65.3,29.58,North,0,2.0,3.6,56,0.00,,,0.00,WUHU216HW,2013-04-19 22:22:00,
2013-04-20 01:27:00,82.6,65.3,29.58,North,0,1.1,3.8,56,0.00,,,0.00,WUHU216HW,2013-04-19 22:27:00,
2013-04-20 01:32:00,82.4,65.1,29.58,North,0,3.6,4.7,56,0.00,,,0.00,WUHU216HW,2013-04-19 22:32:00,
2013-04-20 01:37:00,82.4,65.1,29.58,North,0,3.6,4.7,56,0.00,,,0.00,WUHU216HW,2013-04-19 22:37:00,
2013-04-20 01:42:00,82.4,65.1,29.57,North,0,3.4,4.3,56,0.00,,,0.00,WUHU216HW,2013-04-19 22:42:00,
2013-04-20 01:47:00,82.3,64.9,29.57,North,0,5.1,5.1,56,0.00,,,0.00,WUHU216HW,2013-04-19 22:47:00,
2013-04-20 01:52:00,82.3,64.9,29.57,North,0,2.0,5.1,56,0.00,,,0.00,WUHU216HW,2013-04-19 22:52:00,
2013-04-20 01:57:00,82.3,64.9,29.56,North,0,1.8,5.1,56,0.00,,,0.00,WUHU216HW,2013-04-19 22:57:00,
2013-04-20 02:02:00,82.3,64.9,29.56,North,0,2.9,3.4,56,0.00,,,0.00,WUHU216HW,2013-04-19 23:02:00,
2013-04-20 02:07:00,82.1,65.3,29.57,NNW,338,1.1,3.6,57,0.00,,,0.00,WUHU216HW,2013-04-19 23:07:00,
2013-04-20 02:12:00,82.1,65.3,29.56,NNW,338,1.1,3.6,57,0.00,,,0.00,WUHU216HW,2013-04-19 23:12:00,
2013-04-20 02:17:00,82.1,65.3,29.56,NNW,338,1.8,3.4,57,0.00,,,0.00,WUHU216HW,2013-04-19 23:17:00,
2013-04-20 02:22:00,82.1,65.8,29.56,North,0,3.1,3.8,58,0.00,,,0.00,WUHU216HW,2013-04-19 23:22:00,
2013-04-20 02:27:00,82.1,65.8,29.56,NNW,338,1.1,3.8,58,0.00,,,0.00,WUHU216HW,2013-04-19 23:27:00,
2013-04-20 02:32:00,81.9,65.6,29.56,North,0,1.8,3.6,58,0.00,,,0.00,WUHU216HW,2013-04-19 23:32:00,
2013-04-20 02:37:00,81.9,66.2,29.56,North,0,1.8,3.1,59,0.00,,,0.00,WUHU216HW,2013-04-19 23:37:00,
2013-04-20 02:43:00,81.7,66.0,29.57,NW,315,2.5,3.4,59,0.00,,,0.00,WUHU216HW,2013-04-19 23:43:00,
2013-04-20 02:48:00,81.7,66.0,29.57,North,0,3.4,3.6,59,0.00,,,0.00,WUHU216HW,2013-04-19 23:48:00,
2013-04-20 02:53:00,81.7,66.5,29.57,NNW,338,1.6,4.5,60,0.00,,,0.00,WUHU216HW,2013-04-19 23:53:00,
2013-04-20 02:58:00,81.7,66.5,29.57,NNW,338,1.8,4.5,60,0.00,,,0.00,WUHU216HW,2013-04-19 23:58:00,
2013-04-20 03:03:00,81.5,66.3,29.56,NNW,338,2.5,4.7,60,0.00,,,0.00,WUHU216HW,2013-04-20 00:03:00,
2013-04-20 03:08:00,81.5,66.8,29.56,NW,315,1.8,4.7,61,0.00,,,0.00,WUHU216HW,2013-04-20 00:08:00,
2013-04-20 03:13:00,81.4,67.1,29.56,NNW,338,2.2,3.4,62,0.00,,,0.00,WUHU216HW,2013-04-20 00:13:00,
2013-04-20 03:18:00,81.4,67.5,29.56,NNW,338,3.1,4.0,63,0.00,,,0.00,WUHU216HW,2013-04-20 00:18:00,
2013-04-20 03:23:00,81.4,67.5,29.56,North,0,2.7,4.3,63,0.00,,,0.00,WUHU216HW,2013-04-20 00:23:00,
2013-04-20 03:28:00,81.2,67.8,29.56,NW,315,1.3,4.3,64,0.00,,,0.00,WUHU216HW,2013-04-20 00:28:00,
2013-04-20 03:33:00,81.2,68.2,29.56,NW,315,1.8,3.4,65,0.00,,,0.00,WUHU216HW,2013-04-20 00:33:00,
2013-04-20 03:38:00,81.2,68.2,29.55,NNW,338,1.1,2.7,65,0.00,,,0.00,WUHU216HW,2013-04-20 00:38:00,
2013-04-20 03:43:00,81.2,69.1,29.56,NNW,338,2.9,2.9,67,0.00,,,0.00,WUHU216HW,2013-04-20 00:43:00,
2013-04-20 03:48:00,81.0,69.5,29.56,NNW,338,2.0,3.6,68,0.00,,,0.00,WUHU216HW,2013-04-20 00:48:00,
2013-04-20 03:53:00,81.0,69.9,29.56,NNW,338,3.4,4.9,69,0.00,,,0.00,WUHU216HW,2013-04-20 00:53:00,
2013-04-20 03:58:00,80.8,70.2,29.57,NNW,338,3.1,4.9,70,0.00,,,0.00,WUHU216HW,2013-04-20 00:58:00,
2013-04-20 04:03:00,80.6,70.0,29.57,NNW,338,2.0,4.0,70,0.00,,,0.00,WUHU216HW,2013-04-20 01:03:00,
2013-04-20 04:08:00,80.6,69.6,29.56,NNW,338,2.9,3.6,69,0.00,,,0.00,WUHU216HW,2013-04-20 01:08:00,
2013-04-20 04:13:00,80.6,69.6,29.57,NW,315,3.1,4.0,69,0.00,,,0.00,WUHU216HW,2013-04-20 01:13:00,
2013-04-20 04:18:00,80.6,69.1,29.56,North,0,2.9,4.0,68,0.00,,,0.00,WUHU216HW,2013-04-20 01:18:00,
2013-04-20 04:23:00,80.6,68.7,29.57,North,0,2.5,4.0,67,0.00,,,0.00,WUHU216HW,2013-04-20 01:23:00,
2013-04-20 04:28:00,80.8,68.9,29.57,NNW,338,0.7,3.8,67,0.00,,,0.00,WUHU216HW,2013-04-20 01:28:00,
2013-04-20 04:33:00,80.8,68.4,29.57,North,0,1.1,3.8,66,0.00,,,0.00,WUHU216HW,2013-04-20 01:33:00,
2013-04-20 04:38:00,80.8,68.0,29.57,North,0,1.1,3.1,65,0.00,,,0.00,WUHU216HW,2013-04-20 01:38:00,
2013-04-20 04:43:00,80.8,68.0,29.57,NNW,338,1.8,3.1,65,0.00,,,0.00,WUHU216HW,2013-04-20 01:43:00,
2013-04-20 04:48:00,80.8,67.5,29.58,North,0,2.7,2.9,64,0.00,,,0.00,WUHU216HW,2013-04-20 01:48:00,
2013-04-20 04:53:00,80.8,67.5,29.58,NNW,338,2.5,3.4,64,0.00,,,0.00,WUHU216HW,2013-04-20 01:53:00,
2013-04-20 04:58:00,81.0,67.2,29.58,NNW,338,2.2,3.4,63,0.00,,,0.00,WUHU216HW,2013-04-20 01:58:00,
2013-04-20 05:03:00,81.0,66.3,29.58,North,0,3.1,3.4,61,0.00,,,0.00,WUHU216HW,2013-04-20 02:03:00,
2013-04-20 05:08:00,81.2,65.5,29.58,NW,315,2.2,4.0,59,0.00,,,0.00,WUHU216HW,2013-04-20 02:08:00,
2013-04-20 05:13:00,81.2,65.0,29.58,NNW,338,1.8,4.0,58,0.00,,,0.00,WUHU216HW,2013-04-20 02:13:00,
2013-04-20 05:18:00,81.4,65.2,29.58,NW,315,2.0,3.4,58,0.00,,,0.00,WUHU216HW,2013-04-20 02:18:00,
2013-04-20 05:23:00,81.4,64.1,29.58,NNW,338,2.9,4.0,56,0.00,,,0.00,WUHU216HW,2013-04-20 02:23:00,
2013-04-20 05:28:00,81.5,64.3,29.58,NNW,338,2.0,4.0,56,0.00,,,0.00,WUHU216HW,2013-04-20 02:28:00,
2013-04-20 05:33:00,81.7,63.9,29.58,NNW,338,1.8,4.7,55,0.00,,,0.00,WUHU216HW,2013-04-20 02:33:00,
2013-04-20 05:38:00,81.7,62.8,29.59,NNW,338,1.6,4.7,53,0.00,,,0.00,WUHU216HW,2013-04-20 02:38:00,
2013-04-20 05:43:00,82.1,61.6,29.59,NNW,338,2.5,4.5,50,0.00,,,0.00,WUHU216HW,2013-04-20 02:43:00,
2013-04-20 05:48:00,82.1,61.0,29.59,NW,315,1.8,4.5,49,0.00,,,0.00,WUHU216HW,2013-04-20 02:48:00,
2013-04-20 05:53:00,82.4,60.1,29.60,NW,315,4.0,4.0,47,0.00,,,0.00,WUHU216HW,2013-04-20 02:53:00,
2013-04-20 05:58:00,82.8,59.2,29.59,NW,315,3.8,4.0,45,0.00,,,0.00,WUHU216HW,2013-04-20 02:58:00,
2013-04-20 06:03:00,83.0,58.8,29.60,NNW,338,3.4,4.9,44,0.00,,,0.00,WUHU216HW,2013-04-20 03:03:00,
2013-04-20 06:08:00,83.3,57.9,29.60,NNW,338,4.0,5.6,42,0.00,,,0.00,WUHU216HW,2013-04-20 03:08:00,
2013-04-20 06:13:00,83.7,57.0,29.60,NNW,338,2.9,5.6,40,0.00,,,0.00,WUHU216HW,2013-04-20 03:13:00,
2013-04-20 06:18:00,83.9,55.5,29.60,NW,315,2.9,5.4,38,0.00,,,0.00,WUHU216HW,2013-04-20 03:18:00,
2013-04-20 06:23:00,84.2,55.1,29.60,WNW,293,2.7,5.4,37,0.00,,,0.00,WUHU216HW,2013-04-20 03:23:00,
2013-04-20 06:28:00,84.6,56.2,29.60,WNW,293,1.8,5.1,38,0.00,,,0.00,WUHU216HW,2013-04-20 03:28:00,
2013-04-20 06:33:00,84.6,55.4,29.60,NW,315,2.2,4.0,37,0.00,,,0.00,WUHU216HW,2013-04-20 03:33:00,
2013-04-20 06:38:00,84.8,57.2,29.60,NW,315,1.6,3.4,39,0.00,,,0.00,WUHU216HW,2013-04-20 03:38:00,
2013-04-20 06:43:00,85.1,57.4,29.61,NW,315,2.2,3.4,39,0.00,,,0.00,WUHU216HW,2013-04-20 03:43:00,
2013-04-20 06:48:00,85.1,57.4,29.60,NNW,338,2.9,3.6,39,0.00,,,0.00,WUHU216HW,2013-04-20 03:48:00,
2013-04-20 06:53:00,85.5,57.0,29.60,NW,315,2.5,3.6,38,0.00,,,0.00,WUHU216HW,2013-04-20 03:53:00,
2013-04-20 06:58:00,85.9,54.9,29.61,North,0,4.0,5.1,35,0.00,,,0.00,WUHU216HW,2013-04-20 03:58:00,
2013-04-20 07:01:00,86.0,55.1,29.61,North,0,3.4,6.3,35,0.00,,,0.00,WUHU216HW,2013-04-20 04:01:00,
2013-04-20 07:02:00,86.4,54.6,29.61,North,0,4.0,6.3,34,0.00,,,0.00,WUHU216HW,2013-04-20 04:02:00,
2013-04-20 07:07:00,86.8,54.9,29.61,NW,315,5.8,6.3,34,0.00,,,0.00,WUHU216HW,2013-04-20 04:07:00,
2013-04-20 07:12:00,87.1,55.2,29.61,NNW,338,7.2,10.5,34,0.00,,,0.00,WUHU216HW,2013-04-20 04:12:00,
2013-04-20 07:17:00,87.3,55.4,29.62,NW,315,5.4,10.5,34,0.00,,,0.00,WUHU216HW,2013-04-20 04:17:00,
2013-04-20 07:22:00,87.5,55.5,29.62,North,0,2.9,7.2,34,0.00,,,0.00,WUHU216HW,2013-04-20 04:22:00,
2013-04-20 07:27:00,87.8,55.8,29.62,NNW,338,4.0,6.9,34,0.00,,,0.00,WUHU216HW,2013-04-20 04:27:00,
2013-04-20 07:32:00,87.8,55.0,29.63,NNW,338,5.4,8.3,33,0.00,,,0.00,WUHU216HW,2013-04-20 04:32:00,
2013-04-20 07:37:00,88.2,55.3,29.63,NNW,338,8.1,9.4,33,0.00,,,0.00,WUHU216HW,2013-04-20 04:37:00,
2013-04-20 07:42:00,88.2,56.1,29.63,NNW,338,6.0,9.4,34,0.00,,,0.00,WUHU216HW,2013-04-20 04:42:00,
2013-04-20 07:47:00,88.2,56.1,29.63,North,0,5.1,8.1,34,0.00,,,0.00,WUHU216HW,2013-04-20 04:47:00,
2013-04-20 07:52:00,88.6,56.4,29.63,NNE,23,7.2,8.1,34,0.00,,,0.00,WUHU216HW,2013-04-20 04:52:00,
2013-04-20 07:57:00,88.6,56.4,29.63,WNW,293,5.8,8.1,34,0.00,,,0.00,WUHU216HW,2013-04-20 04:57:00,
2013-04-20 08:02:00,88.6,56.4,29.63,NNW,338,6.7,8.1,34,0.00,,,0.00,WUHU216HW,2013-04-20 05:02:00,
2013-04-20 08:07:00,88.7,56.6,29.63,NNE,23,5.4,7.6,34,0.00,,,0.00,WUHU216HW,2013-04-20 05:07:00,
2013-04-20 08:12:00,88.9,56.7,29.63,NNW,338,4.7,7.6,34,0.00,,,0.00,WUHU216HW,2013-04-20 05:12:00,
2013-04-20 08:17:00,89.3,57.1,29.63,NNW,338,4.9,10.1,34,0.00,,,0.00,WUHU216HW,2013-04-20 05:17:00,
2013-04-20 08:22:00,89.6,57.3,29.64,North,0,5.1,10.1,34,0.00,,,0.00,WUHU216HW,2013-04-20 05:22:00,
2013-04-20 08:27:00,89.8,56.7,29.64,NW,315,6.9,7.8,33,0.00,,,0.00,WUHU216HW,2013-04-20 05:27:00,
2013-04-20 08:32:00,90.2,57.1,29.64,NNW,338,3.1,7.4,33,0.00,,,0.00,WUHU216HW,2013-04-20 05:32:00,
2013-04-20 08:37:00,90.7,57.5,29.64,NNW,338,2.7,7.4,33,0.00,,,0.00,WUHU216HW,2013-04-20 05:37:00,
2013-04-20 08:42:00,90.9,56.9,29.64,NNW,338,4.5,9.2,32,0.00,,,0.00,WUHU216HW,2013-04-20 05:42:00,
2013-04-20 08:47:00,91.3,57.3,29.64,WNW,293,4.3,9.2,32,0.00,,,0.00,WUHU216HW,2013-04-20 05:47:00,
2013-04-20 08:52:00,91.4,57.4,29.64,NE,45,6.7,10.5,32,0.00,,,0.00,WUHU216HW,2013-04-20 05:52:00,
2013-04-20 08:57:00,92.2,57.2,29.63,North,0,3.4,10.5,31,0.00,,,0.00,WUHU216HW,2013-04-20 05:57:00,
2013-04-20 09:02:00,92.3,57.3,29.63,North,0,5.1,9.8,31,0.00,,,0.00,WUHU216HW,2013-04-20 06:02:00,
2013-04-20 09:07:00,92.7,57.6,29.63,NNE,23,8.5,9.8,31,0.00,,,0.00,WUHU216HW,2013-04-20 06:07:00,
2013-04-20 09:12:00,92.5,55.5,29.63,NNW,338,2.0,8.7,29,0.00,,,0.00,WUHU216HW,2013-04-20 06:12:00,
2013-04-20 09:17:00,92.5,56.7,29.63,NNE,23,9.2,9.2,30,0.00,,,0.00,WUHU216HW,2013-04-20 06:17:00,
2013-04-20 09:22:00,92.9,55.9,29.63,NNW,338,6.3,9.2,29,0.00,,,0.00,WUHU216HW,2013-04-20 06:22:00,
2013-04-20 09:27:00,93.2,53.9,29.63,North,0,5.4,7.6,27,0.00,,,0.00,WUHU216HW,2013-04-20 06:27:00,
2013-04-20 09:32:00,93.2,53.9,29.64,North,0,6.9,6.9,27,0.00,,,0.00,WUHU216HW,2013-04-20 06:32:00,
2013-04-20 09:37:00,94.1,51.4,29.64,NNE,23,9.2,9.8,24,0.00,,,0.00,WUHU216HW,2013-04-20 06:37:00,
2013-04-20 09:42:00,94.9,52.0,29.64,North,0,4.7,9.8,24,0.00,,,0.00,WUHU216HW,2013-04-20 06:42:00,
2013-04-20 09:47:00,95.0,52.2,29.64,ESE,113,4.0,9.2,24,0.00,,,0.00,WUHU216HW,2013-04-20 06:47:00,
2013-04-20 09:52:00,95.4,52.5,29.63,North,0,6.3,6.9,24,0.00,,,0.00,WUHU216HW,2013-04-20 06:52:00,
2013-04-20 09:57:00,95.8,51.7,29.63,NE,45,5.1,6.3,23,0.00,,,0.00,WUHU216HW,2013-04-20 06:57:00,
2013-04-20 10:02:00,96.1,50.9,29.63,North,0,5.1,8.3,22,0.00,,,0.00,WUHU216HW,2013-04-20 07:02:00,
2013-04-20 10:07:00,96.1,52.0,29.63,NE,45,6.0,8.3,23,0.00,,,0.00,WUHU216HW,2013-04-20 07:07:00,
2013-04-20 10:12:00,96.1,53.1,29.63,NNE,23,3.8,10.1,24,0.00,,,0.00,WUHU216HW,2013-04-20 07:12:00,
2013-04-20 10:17:00,95.9,52.9,29.63,East,90,6.3,12.1,24,0.00,,,0.00,WUHU216HW,2013-04-20 07:17:00,
2013-04-20 10:22:00,95.8,52.7,29.63,East,90,6.0,12.1,24,0.00,,,0.00,WUHU216HW,2013-04-20 07:22:00,
2013-04-20 10:27:00,95.8,52.7,29.63,East,90,3.1,9.4,24,0.00,,,0.00,WUHU216HW,2013-04-20 07:27:00,
2013-04-20 10:32:00,96.1,52.0,29.63,ESE,113,4.3,8.1,23,0.00,,,0.00,WUHU216HW,2013-04-20 07:32:00,
2013-04-20 10:37:00,96.1,52.0,29.62,ENE,68,4.3,8.1,23,0.00,,,0.00,WUHU216HW,2013-04-20 07:37:00,
2013-04-20 10:42:00,96.3,52.1,29.63,NNE,23,4.0,7.8,23,0.00,,,0.00,WUHU216HW,2013-04-20 07:42:00,
2013-04-20 10:47:00,96.5,52.3,29.63,NE,45,6.7,8.1,23,0.00,,,0.00,WUHU216HW,2013-04-20 07:47:00,
2013-04-20 10:52:00,96.5,52.3,29.63,ENE,68,5.1,8.1,23,0.00,,,0.00,WUHU216HW,2013-04-20 07:52:00,
2013-04-20 10:57:00,96.5,52.3,29.62,ENE,68,6.0,6.9,23,0.00,,,0.00,WUHU216HW,2013-04-20 07:57:00,
2013-04-20 11:02:00,96.5,52.3,29.62,East,90,5.4,9.8,23,0.00,,,0.00,WUHU216HW,2013-04-20 08:02:00,
2013-04-20 11:07:00,96.1,52.0,29.62,NE,45,9.6,9.8,23,0.00,,,0.00,WUHU216HW,2013-04-20 08:07:00,
2013-04-20 11:12:00,95.9,52.9,29.62,NNE,23,2.9,9.6,24,0.00,,,0.00,WUHU216HW,2013-04-20 08:12:00,
2013-04-20 11:17:00,95.9,52.9,29.61,East,90,6.3,9.6,24,0.00,,,0.00,WUHU216HW,2013-04-20 08:17:00,
2013-04-20 11:22:00,96.1,54.2,29.61,ENE,68,5.6,9.2,25,0.00,,,0.00,WUHU216HW,2013-04-20 08:22:00,
2013-04-20 11:27:00,96.5,53.4,29.61,ENE,68,8.5,8.5,24,0.00,,,0.00,WUHU216HW,2013-04-20 08:27:00,
2013-04-20 11:32:00,96.1,54.2,29.61,ESE,113,4.7,8.5,25,0.00,,,0.00,WUHU216HW,2013-04-20 08:32:00,
2013-04-20 11:37:00,96.3,53.3,29.61,NNE,23,4.9,8.3,24,0.00,,,0.00,WUHU216HW,2013-04-20 08:37:00,
2013-04-20 11:42:00,96.5,53.4,29.60,NNW,338,2.9,7.2,24,0.00,,,0.00,WUHU216HW,2013-04-20 08:42:00,
2013-04-20 11:47:00,96.7,53.6,29.60,NE,45,6.0,8.1,24,0.00,,,0.00,WUHU216HW,2013-04-20 08:47:00,
2013-04-20 11:52:00,96.7,52.5,29.60,NNE,23,8.3,8.5,23,0.00,,,0.00,WUHU216HW,2013-04-20 08:52:00,
2013-04-20 11:57:00,96.8,51.5,29.60,North,0,6.7,9.8,22,0.00,,,0.00,WUHU216HW,2013-04-20 08:57:00,
2013-04-20 12:02:00,96.8,51.5,29.60,NE,45,2.5,9.8,22,0.00,,,0.00,WUHU216HW,2013-04-20 09:02:00,
2013-04-20 12:07:00,97.0,52.7,29.59,NE,45,3.1,8.3,23,0.00,,,0.00,WUHU216HW,2013-04-20 09:07:00,
2013-04-20 12:12:00,97.2,51.9,29.59,NE,45,5.4,6.5,22,0.00,,,0.00,WUHU216HW,2013-04-20 09:12:00,
2013-04-20 12:17:00,97.4,49.8,29.59,SE,135,5.1,7.2,20,0.00,,,0.00,WUHU216HW,2013-04-20 09:17:00,
2013-04-20 12:22:00,97.6,51.0,29.58,NE,45,5.1,7.6,21,0.00,,,0.00,WUHU216HW,2013-04-20 09:22:00,
2013-04-20 12:27:00,97.6,52.1,29.58,NE,45,4.5,7.6,22,0.00,,,0.00,WUHU216HW,2013-04-20 09:27:00,
2013-04-20 12:32:00,97.9,53.6,29.58,NE,45,4.5,6.5,23,0.00,,,0.00,WUHU216HW,2013-04-20 09:32:00,
2013-04-20 12:37:00,97.7,53.4,29.58,ESE,113,4.5,6.5,23,0.00,,,0.00,WUHU216HW,2013-04-20 09:37:00,
2013-04-20 12:42:00,97.7,53.4,29.58,ESE,113,6.7,6.7,23,0.00,,,0.00,WUHU216HW,2013-04-20 09:42:00,
2013-04-20 12:47:00,97.6,52.1,29.58,SE,135,5.4,8.1,22,0.00,,,0.00,WUHU216HW,2013-04-20 09:47:00,
2013-04-20 12:52:00,97.4,54.2,29.57,ESE,113,4.5,8.1,24,0.00,,,0.00,WUHU216HW,2013-04-20 09:52:00,
2013-04-20 12:57:00,97.6,53.2,29.57,ENE,68,5.4,6.9,23,0.00,,,0.00,WUHU216HW,2013-04-20 09:57:00,
2013-04-20 13:02:00,97.9,53.6,29.57,SE,135,4.7,7.6,23,0.00,,,0.00,WUHU216HW,2013-04-20 10:02:00,
2013-04-20 13:07:00,98.5,55.1,29.57,ENE,68,7.6,7.6,24,0.00,,,0.00,WUHU216HW,2013-04-20 10:07:00,
2013-04-20 13:12:00,99.0,53.3,29.57,ENE,68,7.6,8.7,22,0.00,,,0.00,WUHU216HW,2013-04-20 10:12:00,
2013-04-20 13:17:00,98.1,52.6,29.57,ENE,68,7.6,9.8,22,0.00,,,0.00,WUHU216HW,2013-04-20 10:17:00,
2013-04-20 13:22:00,97.6,49.9,29.57,ENE,68,7.6,9.8,20,0.00,,,0.00,WUHU216HW,2013-04-20 10:22:00,
2013-04-20 13:27:00,97.6,54.4,29.57,NNE,23,7.6,8.3,24,0.00,,,0.00,WUHU216HW,2013-04-20 10:27:00,
2013-04-20 13:32:00,97.9,53.6,29.57,NNW,338,7.8,7.8,23,0.00,,,0.00,WUHU216HW,2013-04-20 10:32:00,
2013-04-20 13:37:00,98.3,52.8,29.56,NNE,23,4.7,7.8,22,0.00,,,0.00,WUHU216HW,2013-04-20 10:37:00,
2013-04-20 13:42:00,98.6,53.0,29.56,ENE,68,3.4,7.8,22,0.00,,,0.00,WUHU216HW,2013-04-20 10:42:00,
2013-04-20 13:47:00,99.2,53.5,29.56,ESE,113,4.3,7.8,22,0.00,,,0.00,WUHU216HW,2013-04-20 10:47:00,
2013-04-20 13:52:00,99.4,53.6,29.56,NNE,23,3.6,8.7,22,0.00,,,0.00,WUHU216HW,2013-04-20 10:52:00,
2013-04-20 13:57:00,99.4,51.3,29.56,ENE,68,4.7,8.7,20,0.00,,,0.00,WUHU216HW,2013-04-20 10:57:00,
2013-04-20 14:02:00,99.4,51.3,29.55,ENE,68,3.1,6.9,20,0.00,,,0.00,WUHU216HW,2013-04-20 11:02:00,
2013-04-20 14:07:00,99.4,54.7,29.55,East,90,5.4,6.5,23,0.00,,,0.00,WUHU216HW,2013-04-20 11:07:00,
2013-04-20 14:12:00,99.5,51.5,29.55,ESE,113,4.5,6.9,20,0.00,,,0.00,WUHU216HW,2013-04-20 11:12:00,
2013-04-20 14:17:00,99.7,51.7,29.55,ENE,68,4.3,7.6,20,0.00,,,0.00,WUHU216HW,2013-04-20 11:17:00,
2013-04-20 14:22:00,99.7,53.9,29.55,ESE,113,4.3,7.6,22,0.00,,,0.00,WUHU216HW,2013-04-20 11:22:00,
2013-04-20 14:27:00,99.4,52.5,29.55,North,0,4.5,7.4,21,0.00,,,0.00,WUHU216HW,2013-04-20 11:27:00,
2013-04-20 14:32:00,99.4,49.5,29.55,ENE,68,4.0,7.4,19,0.00,,,0.00,WUHU216HW,2013-04-20 11:32:00,
2013-04-20 14:37:00,99.4,51.3,29.55,North,0,1.8,7.2,20,0.00,,,0.00,WUHU216HW,2013-04-20 11:37:00,
2013-04-20 14:42:00,99.4,51.3,29.55,ESE,113,3.6,7.4,20,0.00,,,0.00,WUHU216HW,2013-04-20 11:42:00,
2013-04-20 14:47:00,99.2,51.2,29.55,ESE,113,3.1,7.4,20,0.00,,,0.00,WUHU216HW,2013-04-20 11:47:00,
2013-04-20 14:52:00,99.4,51.3,29.55,NNE,23,2.9,7.2,20,0.00,,,0.00,WUHU216HW,2013-04-20 11:52:00,
2013-04-20 14:57:00,99.4,51.3,29.54,ENE,68,7.4,8.3,20,0.00,,,0.00,WUHU216HW,2013-04-20 11:57:00,
2013-04-20 15:02:00,99.0,53.3,29.54,NE,45,6.9,8.3,22,0.00,,,0.00,WUHU216HW,2013-04-20 12:02:00,
2013-04-20 15:07:00,98.6,55.3,29.54,ENE,68,6.0,7.6,24,0.00,,,0.00,WUHU216HW,2013-04-20 12:07:00,
2013-04-20 15:12:00,97.7,55.5,29.54,NE,45,4.7,8.5,25,0.00,,,0.00,WUHU216HW,2013-04-20 12:12:00,
2013-04-20 15:17:00,96.8,57.0,29.54,NNE,23,6.5,8.7,27,0.00,,,0.00,WUHU216HW,2013-04-20 12:17:00,
2013-04-20 15:22:00,96.8,58.2,29.54,NNE,23,5.4,8.7,28,0.00,,,0.00,WUHU216HW,2013-04-20 12:22:00,
2013-04-20 15:27:00,97.2,57.3,29.54,NNE,23,6.3,12.8,27,0.00,,,0.00,WUHU216HW,2013-04-20 12:27:00,
2013-04-20 15:32:00,97.4,59.7,29.54,North,0,9.2,12.8,29,0.00,,,0.00,WUHU216HW,2013-04-20 12:32:00,
2013-04-20 15:37:00,97.2,60.7,29.54,NNE,23,5.4,11.4,30,0.00,,,0.00,WUHU216HW,2013-04-20 12:37:00,
2013-04-20 15:42:00,96.8,62.8,29.54,NE,45,5.8,12.1,33,0.00,,,0.00,WUHU216HW,2013-04-20 12:42:00,
2013-04-20 15:47:00,95.9,60.4,29.55,NNW,338,7.8,15.0,31,0.00,,,0.00,WUHU216HW,2013-04-20 12:47:00,
2013-04-20 15:52:00,95.4,60.8,29.54,NNE,23,5.6,15.0,32,0.00,,,0.00,WUHU216HW,2013-04-20 12:52:00,
2013-04-20 15:57:00,95.0,60.5,29.54,NNE,23,17.7,17.7,32,0.00,,,0.00,WUHU216HW,2013-04-20 12:57:00,
2013-04-20 16:02:00,95.4,59.9,29.54,NNE,23,13.4,17.7,31,0.00,,,0.00,WUHU216HW,2013-04-20 13:02:00,
2013-04-20 16:07:00,95.8,62.7,29.54,NW,315,5.1,17.7,34,0.00,,,0.00,WUHU216HW,2013-04-20 13:07:00,
2013-04-20 16:12:00,96.1,62.2,29.54,North,0,9.2,12.8,33,0.00,,,0.00,WUHU216HW,2013-04-20 13:12:00,
2013-04-20 16:17:00,95.6,60.9,29.54,NNW,338,3.6,11.4,32,0.00,,,0.00,WUHU216HW,2013-04-20 13:17:00,
2013-04-20 16:22:00,95.0,59.7,29.54,North,0,13.6,13.6,31,0.00,,,0.00,WUHU216HW,2013-04-20 13:22:00,
2013-04-20 16:27:00,94.5,59.2,29.54,NE,45,4.3,13.6,31,0.00,,,0.00,WUHU216HW,2013-04-20 13:27:00,
2013-04-20 16:32:00,94.7,60.9,29.55,North,0,4.7,13.0,33,0.00,,,0.00,WUHU216HW,2013-04-20 13:32:00,
2013-04-20 16:37:00,94.7,62.6,29.54,NNW,338,4.9,17.9,35,0.00,,,0.00,WUHU216HW,2013-04-20 13:37:00,
2013-04-20 16:42:00,93.8,62.6,29.54,North,0,6.7,17.9,36,0.00,,,0.00,WUHU216HW,2013-04-20 13:42:00,
2013-04-20 16:47:00,93.6,64.1,29.54,North,0,8.1,18.6,38,0.00,,,0.00,WUHU216HW,2013-04-20 13:47:00,
2013-04-20 16:52:00,93.8,65.0,29.55,NNE,23,2.9,18.6,39,0.00,,,0.00,WUHU216HW,2013-04-20 13:52:00,
2013-04-20 16:57:00,93.2,66.0,29.55,NE,45,6.5,8.7,41,0.00,,,0.00,WUHU216HW,2013-04-20 13:57:00,
2013-04-20 17:02:00,92.9,67.0,29.55,North,0,5.6,13.4,43,0.00,,,0.00,WUHU216HW,2013-04-20 14:02:00,
2013-04-20 17:07:00,92.2,67.6,29.55,North,0,6.9,13.4,45,0.00,,,0.00,WUHU216HW,2013-04-20 14:07:00,
2013-04-20 17:12:00,91.6,67.2,29.55,NNE,23,7.6,11.9,45,0.00,,,0.00,WUHU216HW,2013-04-20 14:12:00,
2013-04-20 17:17:00,91.4,66.3,29.55,North,0,8.3,12.8,44,0.00,,,0.00,WUHU216HW,2013-04-20 14:17:00,
2013-04-20 17:23:00,91.1,66.0,29.55,NNE,23,9.2,12.8,44,0.00,,,0.00,WUHU216HW,2013-04-20 14:23:00,
2013-04-20 17:28:00,90.4,66.0,29.56,NE,45,7.6,12.1,45,0.00,,,0.00,WUHU216HW,2013-04-20 14:28:00,
2013-04-20 17:33:00,90.0,65.7,29.56,NNW,338,6.0,12.3,45,0.00,,,0.00,WUHU216HW,2013-04-20 14:33:00,
2013-04-20 17:38:00,89.6,66.0,29.56,NNW,338,7.2,12.3,46,0.00,,,0.00,WUHU216HW,2013-04-20 14:38:00,
2013-04-20 17:43:00,89.6,66.0,29.56,NNW,338,5.6,11.6,46,0.00,,,0.00,WUHU216HW,2013-04-20 14:43:00,
2013-04-20 17:48:00,88.9,66.0,29.56,NW,315,8.5,11.2,47,0.00,,,0.00,WUHU216HW,2013-04-20 14:48:00,
2013-04-20 17:53:00,88.7,65.9,29.56,NNW,338,7.6,10.5,47,0.00,,,0.00,WUHU216HW,2013-04-20 14:53:00,
2013-04-20 17:58:00,88.6,67.0,29.57,WNW,293,7.2,10.5,49,0.00,,,0.00,WUHU216HW,2013-04-20 14:58:00,
2013-04-20 18:03:00,88.2,67.3,29.57,NW,315,8.5,9.2,50,0.00,,,0.00,WUHU216HW,2013-04-20 15:03:00,
2013-04-20 18:08:00,88.0,66.5,29.57,NNW,338,5.4,9.2,49,0.00,,,0.00,WUHU216HW,2013-04-20 15:08:00,
2013-04-20 18:13:00,88.2,66.7,29.57,North,0,4.7,9.6,49,0.00,,,0.00,WUHU216HW,2013-04-20 15:13:00,
2013-04-20 18:18:00,88.2,66.1,29.57,NNW,338,8.3,11.0,48,0.00,,,0.00,WUHU216HW,2013-04-20 15:18:00,
2013-04-20 18:23:00,88.2,66.7,29.57,NNW,338,7.4,11.0,49,0.00,,,0.00,WUHU216HW,2013-04-20 15:23:00,
2013-04-20 18:28:00,88.0,67.2,29.57,NNW,338,3.4,10.5,50,0.00,,,0.00,WUHU216HW,2013-04-20 15:28:00,
2013-04-20 18:33:00,88.0,67.2,29.58,NW,315,5.4,9.4,50,0.00,,,0.00,WUHU216HW,2013-04-20 15:33:00,
2013-04-20 18:38:00,87.8,67.5,29.58,North,0,8.5,8.9,51,0.00,,,0.00,WUHU216HW,2013-04-20 15:38:00,
2013-04-20 18:43:00,87.5,65.3,29.58,North,0,8.7,9.8,48,0.00,,,0.00,WUHU216HW,2013-04-20 15:43:00,
2013-04-20 18:48:00,87.3,64.0,29.58,NNW,338,6.9,12.1,46,0.00,,,0.00,WUHU216HW,2013-04-20 15:48:00,
2013-04-20 18:53:00,87.5,63.5,29.58,ENE,68,4.0,12.1,45,0.00,,,0.00,WUHU216HW,2013-04-20 15:53:00,
2013-04-20 18:58:00,87.5,61.6,29.58,WNW,293,7.6,11.2,42,0.00,,,0.00,WUHU216HW,2013-04-20 15:58:00,
2013-04-20 19:03:00,87.5,60.3,29.58,North,0,7.6,11.2,40,0.00,,,0.00,WUHU216HW,2013-04-20 16:03:00,
2013-04-20 19:08:00,87.7,59.7,29.58,North,0,7.2,11.2,39,0.00,,,0.00,WUHU216HW,2013-04-20 16:08:00,
2013-04-20 19:13:00,87.7,58.9,29.58,North,0,4.0,12.1,38,0.00,,,0.00,WUHU216HW,2013-04-20 16:13:00,
2013-04-20 19:18:00,87.5,58.7,29.58,NNW,338,5.4,12.1,38,0.00,,,0.00,WUHU216HW,2013-04-20 16:18:00,
2013-04-20 19:23:00,87.5,59.5,29.59,NNW,338,4.5,11.0,39,0.00,,,0.00,WUHU216HW,2013-04-20 16:23:00,
2013-04-20 19:28:00,87.3,60.2,29.59,North,0,6.3,10.5,40,0.00,,,0.00,WUHU216HW,2013-04-20 16:28:00,
2013-04-20 19:33:00,87.3,60.2,29.59,West,270,5.4,10.5,40,0.00,,,0.00,WUHU216HW,2013-04-20 16:33:00,
2013-04-20 19:38:00,87.3,60.2,29.59,North,0,3.4,10.1,40,0.00,,,0.00,WUHU216HW,2013-04-20 16:38:00,
2013-04-20 19:43:00,87.1,60.0,29.59,North,0,5.8,7.8,40,0.00,,,0.00,WUHU216HW,2013-04-20 16:43:00,
2013-04-20 19:48:00,87.1,60.7,29.59,North,0,4.7,8.9,41,0.00,,,0.00,WUHU216HW,2013-04-20 16:48:00,
2013-04-20 19:53:00,87.1,60.7,29.58,North,0,7.6,8.9,41,0.00,,,0.00,WUHU216HW,2013-04-20 16:53:00,
2013-04-20 19:58:00,86.9,60.5,29.59,NNW,338,10.5,11.9,41,0.00,,,0.00,WUHU216HW,2013-04-20 16:58:00,
2013-04-20 20:03:00,86.9,60.5,29.59,NW,315,7.6,11.9,41,0.00,,,0.00,WUHU216HW,2013-04-20 17:03:00,
2013-04-20 20:08:00,86.8,60.9,29.59,North,0,5.4,8.5,42,0.00,,,0.00,WUHU216HW,2013-04-20 17:08:00,
2013-04-20 20:13:00,86.8,60.9,29.59,North,0,4.0,7.8,42,0.00,,,0.00,WUHU216HW,2013-04-20 17:13:00,
2013-04-20 20:18:00,86.8,61.6,29.60,North,0,5.4,7.6,43,0.00,,,0.00,WUHU216HW,2013-04-20 17:18:00,
2013-04-20 20:23:00,86.8,61.6,29.60,NNW,338,3.4,7.6,43,0.00,,,0.00,WUHU216HW,2013-04-20 17:23:00,
2013-04-20 20:28:00,86.8,61.6,29.60,WNW,293,2.0,7.6,43,0.00,,,0.00,WUHU216HW,2013-04-20 17:28:00,
2013-04-20 20:33:00,86.6,62.0,29.60,North,0,4.9,6.9,44,0.00,,,0.00,WUHU216HW,2013-04-20 17:33:00,
2013-04-20 20:38:00,86.4,61.3,29.60,NNE,23,7.6,7.8,43,0.00,,,0.00,WUHU216HW,2013-04-20 17:38:00,
2013-04-20 20:43:00,86.4,60.7,29.60,North,0,7.6,9.4,42,0.00,,,0.00,WUHU216HW,2013-04-20 17:43:00,
2013-04-20 20:48:00,86.4,60.0,29.60,NNW,338,3.6,10.5,41,0.00,,,0.00,WUHU216HW,2013-04-20 17:48:00,
2013-04-20 20:53:00,86.4,60.0,29.60,NNW,338,6.9,11.2,41,0.00,,,0.00,WUHU216HW,2013-04-20 17:53:00,
2013-04-20 20:58:00,86.2,60.5,29.60,NW,315,6.5,11.2,42,0.00,,,0.00,WUHU216HW,2013-04-20 17:58:00,
2013-04-20 21:03:00,86.2,59.9,29.60,North,0,7.2,10.1,41,0.00,,,0.00,WUHU216HW,2013-04-20 18:03:00,
2013-04-20 21:08:00,86.2,60.5,29.60,North,0,10.1,11.9,42,0.00,,,0.00,WUHU216HW,2013-04-20 18:08:00,
2013-04-20 21:13:00,86.0,60.3,29.60,NW,315,5.4,11.9,42,0.00,,,0.00,WUHU216HW,2013-04-20 18:13:00,
2013-04-20 21:18:00,86.0,60.3,29.60,NNE,23,3.6,11.2,42,0.00,,,0.00,WUHU216HW,2013-04-20 18:18:00,
2013-04-20 21:23:00,86.0,60.3,29.60,North,0,4.7,11.2,42,0.00,,,0.00,WUHU216HW,2013-04-20 18:23:00,
2013-04-20 21:28:00,86.0,60.3,29.60,NNW,338,2.5,9.4,42,0.00,,,0.00,WUHU216HW,2013-04-20 18:28:00,
2013-04-20 21:33:00,85.9,60.1,29.60,NNE,23,4.7,8.7,42,0.00,,,0.00,WUHU216HW,2013-04-20 18:33:00,
2013-04-20 21:38:00,85.9,60.8,29.60,NNE,23,4.9,8.1,43,0.00,,,0.00,WUHU216HW,2013-04-20 18:38:00,
2013-04-20 21:43:00,85.7,61.8,29.60,NNW,338,4.0,8.1,45,0.00,,,0.00,WUHU216HW,2013-04-20 18:43:00,
2013-04-20 21:48:00,85.7,63.1,29.60,North,0,4.5,6.5,47,0.00,,,0.00,WUHU216HW,2013-04-20 18:48:00,
2013-04-20 21:53:00,85.5,63.0,29.60,North,0,3.4,7.6,47,0.00,,,0.00,WUHU216HW,2013-04-20 18:53:00,
2013-04-20 21:58:00,85.5,63.6,29.60,North,0,2.7,8.1,48,0.00,,,0.00,WUHU216HW,2013-04-20 18:58:00,
2013-04-20 22:03:00,85.3,64.1,29.60,NNE,23,3.8,8.1,49,0.00,,,0.00,WUHU216HW,2013-04-20 19:03:00,
2013-04-20 22:08:00,85.3,64.7,29.60,NNW,338,5.8,6.3,50,0.00,,,0.00,WUHU216HW,2013-04-20 19:08:00,
2013-04-20 22:13:00,85.1,65.1,29.60,NW,315,3.4,6.3,51,0.00,,,0.00,WUHU216HW,2013-04-20 19:13:00,
2013-04-20 22:18:00,85.1,65.6,29.60,North,0,4.7,6.3,52,0.00,,,0.00,WUHU216HW,2013-04-20 19:18:00,
2013-04-20 22:23:00,85.0,65.4,29.59,North,0,5.8,6.7,52,0.00,,,0.00,WUHU216HW,2013-04-20 19:23:00,
2013-04-20 22:28:00,85.0,66.0,29.59,NNW,338,3.4,6.7,53,0.00,,,0.00,WUHU216HW,2013-04-20 19:28:00,
2013-04-20 22:33:00,85.0,66.0,29.59,NW,315,3.8,5.8,53,0.00,,,0.00,WUHU216HW,2013-04-20 19:33:00,
2013-04-20 22:38:00,84.8,65.8,29.59,NNE,23,4.0,6.0,53,0.00,,,0.00,WUHU216HW,2013-04-20 19:38:00,
2013-04-20 22:43:00,84.6,65.6,29.59,North,0,3.6,6.3,53,0.00,,,0.00,WUHU216HW,2013-04-20 19:43:00,
2013-04-20 22:48:00,84.6,66.2,29.58,North,0,2.5,6.3,54,0.00,,,0.00,WUHU216HW,2013-04-20 19:48:00,
2013-04-20 22:53:00,84.6,66.7,29.58,NNW,338,2.9,6.9,55,0.00,,,0.00,WUHU216HW,2013-04-20 19:53:00,
2013-04-20 22:58:00,84.4,66.5,29.58,NNW,338,2.7,6.9,55,0.00,,,0.00,WUHU216HW,2013-04-20 19:58:00,
2013-04-20 23:03:00,84.2,66.3,29.58,NNW,338,4.9,5.4,55,0.00,,,0.00,WUHU216HW,2013-04-20 20:03:00,
2013-04-20 23:08:00,84.2,66.3,29.58,NW,315,2.5,6.3,55,0.00,,,0.00,WUHU216HW,2013-04-20 20:08:00,
2013-04-20 23:13:00,84.4,66.5,29.58,NW,315,1.8,6.3,55,0.00,,,0.00,WUHU216HW,2013-04-20 20:13:00,
2013-04-20 23:18:00,84.2,65.8,29.58,NNW,338,5.4,5.4,54,0.00,,,0.00,WUHU216HW,2013-04-20 20:18:00,
2013-04-20 23:23:00,84.2,65.8,29.58,North,0,1.8,5.4,54,0.00,,,0.00,WUHU216HW,2013-04-20 20:23:00,
2013-04-20 23:28:00,84.2,66.3,29.58,NNW,338,2.5,6.3,55,0.00,,,0.00,WUHU216HW,2013-04-20 20:28:00,
2013-04-20 23:33:00,84.2,66.3,29.58,NNW,338,3.8,7.2,55,0.00,,,0.00,WUHU216HW,2013-04-20 20:33:00,
2013-04-20 23:38:00,84.2,65.8,29.58,NNW,338,4.9,9.2,54,0.00,,,0.00,WUHU216HW,2013-04-20 20:38:00,
2013-04-20 23:43:00,84.1,65.6,29.58,NNE,23,5.8,9.2,54,0.00,,,0.00,WUHU216HW,2013-04-20 20:43:00,
2013-04-20 23:48:00,84.1,65.6,29.58,NW,315,5.8,6.9,54,0.00,,,0.00,WUHU216HW,2013-04-20 20:48:00,
2013-04-20 23:53:00,84.1,65.6,29.57,NW,315,6.9,6.9,54,0.00,,,0.00,WUHU216HW,2013-04-20 20:53:00,
2013-04-20 23:58:00,84.2,65.8,29.57,North,0,3.4,6.9,54,0.00,,,0.00,WUHU216HW,2013-04-20 20:58:00,